Location: Gu�tanj
(46.5431°N, 14.9692°E)
Time: 12:38:57
(UTC+00:00)

SJ 16-02 - Visible Passes

Search period start: 20 June 2021 00:00
Search period end: 30 June 2021 00:00
Orbit: 606 x 616 km, 75.0° (Epoch: 18 June)

Date Brightness Start Highest point End Pass type
(mag) Time Alt. Az. Time Alt. Az. Time Alt. Az.
20 Jun 3.4 21:34:37 10° N 21:37:50 19° NE 21:40:30 12° E visible
20 Jun 1.6 23:12:27 10° NNW 23:16:42 50° WSW 23:17:27 45° SW visible
21 Jun 2.6 21:48:57 10° N 21:52:54 32° ENE 21:54:55 21° ESE visible
21 Jun 2.5 23:27:38 10° NW 23:31:22 28° W 23:31:53 27° WSW visible
22 Jun 1.7 22:03:31 10° NNW 22:07:50 55° ENE 22:09:22 36° SE visible
22 Jun 3.3 23:43:19 10° WNW 23:45:56 16° W 23:46:20 16° WSW visible
23 Jun 3.7 20:41:17 10° NNE 20:43:30 14° NE 20:45:43 10° E visible
23 Jun 1.2 22:18:18 10° NNW 22:22:42 81° WSW 22:23:51 49° S visible
24 Jun 3.1 20:55:14 10° N 20:58:39 22° ENE 21:01:23 13° ESE visible
24 Jun 1.9 22:33:16 10° NNW 22:37:26 44° WSW 22:38:21 38° SW visible
25 Jun 2.4 21:09:38 10° N 21:13:42 36° ENE 21:15:55 22° ESE visible
25 Jun 2.8 22:48:33 10° NW 22:52:05 24° W 22:52:53 23° WSW visible
26 Jun 1.5 21:24:15 10° NNW 21:28:37 64° ENE 21:30:28 32° SE visible
26 Jun 3.5 23:04:25 10° WNW 23:06:38 14° W 23:07:27 13° WSW visible
27 Jun 3.5 20:01:46 10° NNE 20:04:21 15° NE 20:06:55 10° E visible
27 Jun 1.4 21:39:04 10° NNW 21:43:27 71° WSW 21:45:03 37° S visible
28 Jun 2.9 20:15:52 10° N 20:19:28 24° ENE 20:22:41 12° ESE visible
28 Jun 2.3 21:54:06 10° NW 21:58:10 38° WSW 21:59:40 28° SW visible
29 Jun 2.1 20:30:19 10° N 20:34:29 41° ENE 20:37:19 18° SE visible
29 Jun 3.1 22:09:28 10° NW 22:12:47 21° W 22:14:18 18° SW visible
